• In Österreich
  • Länderverzeichnis
  • Für 7 Tage
  • Wassertemperatur
  • Satellitenkarten
  • Wetterkarte
  • News
  • Widgets
  • user-avatar
    Anmelden

    Stündliche Wetter Kazaryns'ke

    Heute, 24 Mai, Donnerstag

    Zeit Temperatur Niederschläge Wind Luftdruck Luftfeuchtigkeit
    00:00 +19°C° 0 mm 2 m/S 754 mmHg 76%
    01:00 +18°C° 0 mm 2 m/S 754 mmHg 79%
    02:00 +18°C° 0 mm 2 m/S 754 mmHg 82%
    03:00 +18°C° 0 mm 2 m/S 753 mmHg 81%
    04:00 +18°C° 0 mm 2 m/S 753 mmHg 80%
    05:00 +18°C° 0 mm 2 m/S 753 mmHg 80%
    06:00 +20°C° 0 mm 2 m/S 753 mmHg 73%
    07:00 +21°C° 0 mm 3 m/S 753 mmHg 67%
    08:00 +25°C° 0 mm 2 m/S 754 mmHg 60%
    09:00 +26°C° 0 mm 3 m/S 753 mmHg 54%
    10:00 +27°C° 0 mm 3 m/S 753 mmHg 48%
    11:00 +28°C° 0 mm 3 m/S 753 mmHg 42%
    12:00 +28°C° 0 mm 3 m/S 753 mmHg 42%
    13:00 +28°C° 0 mm 3 m/S 753 mmHg 43%
    14:00 +28°C° 0 mm 3 m/S 752 mmHg 43%
    15:00 +28°C° 0 mm 2 m/S 752 mmHg 45%
    16:00 +27°C° 0 mm 2 m/S 752 mmHg 48%
    17:00 +27°C° 0 mm 2 m/S 752 mmHg 50%
    18:00 +25°C° 0 mm 2 m/S 752 mmHg 55%
    19:00 +24°C° 0 mm 2 m/S 752 mmHg 59%
    20:00 +23°C° 0 mm 2 m/S 752 mmHg 63%
    21:00 +21°C° 0 mm 2 m/S 752 mmHg 65%
    22:00 +20°C° 0 mm 3 m/S 752 mmHg 68%
    23:00 +19°C° 0 mm 3 m/S 752 mmHg 71%

    Morgen, 25 Mai, Freitag

    Zeit Temperatur Niederschläge Wind Luftdruck Luftfeuchtigkeit
    00:00 +19°C° 0 mm 3 m/S 752 mmHg 73%
    01:00 +18°C° 0 mm 3 m/S 752 mmHg 75%
    02:00 +18°C° 0 mm 3 m/S 752 mmHg 77%
    03:00 +18°C° 0 mm 3 m/S 752 mmHg 80%
    04:00 +17°C° 0 mm 3 m/S 752 mmHg 82%
    05:00 +17°C° 0 mm 3 m/S 752 mmHg 84%
    06:00 +19°C° 0 mm 3 m/S 752 mmHg 77%
    07:00 +21°C° 0 mm 4 m/S 752 mmHg 71%
    08:00 +23°C° 0 mm 5 m/S 752 mmHg 64%
    09:00 +25°C° 0 mm 5 m/S 752 mmHg 58%
    10:00 +26°C° 0 mm 5 m/S 752 mmHg 53%
    11:00 +28°C° 0 mm 5 m/S 752 mmHg 47%
    12:00 +28°C° 0 mm 6 m/S 752 mmHg 46%
    13:00 +28°C° 0 mm 6 m/S 752 mmHg 45%
    14:00 +29°C° 0 mm 7 m/S 752 mmHg 44%
    15:00 +28°C° 0 mm 7 m/S 752 mmHg 46%
    16:00 +28°C° 0 mm 7 m/S 752 mmHg 49%
    17:00 +27°C° 0 mm 7 m/S 752 mmHg 52%
    18:00 +26°C° 0 mm 6 m/S 752 mmHg 58%
    19:00 +23°C° 0 mm 5 m/S 753 mmHg 65%
    20:00 +21°C° 0 mm 5 m/S 753 mmHg 72%
    21:00 +21°C° 0 mm 5 m/S 753 mmHg 75%
    22:00 +20°C° 0 mm 5 m/S 754 mmHg 78%
    23:00 +19°C° 0 mm 5 m/S 754 mmHg 82%

    übermorgen, 26 Mai, Samstag

    Zeit Temperatur Niederschläge Wind Luftdruck Luftfeuchtigkeit
    00:00 +19°C° 0 mm 5 m/S 754 mmHg 83%
    01:00 +17°C° 0 mm 5 m/S 754 mmHg 84%
    02:00 +17°C° 0 mm 5 m/S 754 mmHg 86%
    03:00 +16°C° 0 mm 6 m/S 755 mmHg 85%
    04:00 +16°C° 0 mm 6 m/S 755 mmHg 85%
    05:00 +15°C° 0 mm 6 m/S 755 mmHg 84%
    06:00 +16°C° 0 mm 6 m/S 755 mmHg 80%
    07:00 +17°C° 0 mm 7 m/S 756 mmHg 75%
    08:00 +17°C° 0 mm 7 m/S 756 mmHg 70%
    09:00 +17°C° 0 mm 7 m/S 756 mmHg 70%
    10:00 +17°C° 0 mm 7 m/S 756 mmHg 70%
    11:00 +17°C° 0 mm 7 m/S 757 mmHg 70%
    12:00 +17°C° 0 mm 7 m/S 757 mmHg 69%
    13:00 +18°C° 0 mm 7 m/S 757 mmHg 68%
    14:00 +18°C° 0 mm 7 m/S 757 mmHg 67%
    15:00 +18°C° 0 mm 7 m/S 757 mmHg 66%
    16:00 +19°C° 0 mm 6 m/S 757 mmHg 64%
    17:00 +19°C° 0 mm 6 m/S 757 mmHg 62%
    18:00 +17°C° 0 mm 6 m/S 757 mmHg 64%
    19:00 +17°C° 0 mm 5 m/S 757 mmHg 65%
    20:00 +17°C° 0 mm 4 m/S 758 mmHg 66%
    21:00 +17°C° 0 mm 4 m/S 758 mmHg 65%
    22:00 +16°C° 0 mm 5 m/S 758 mmHg 63%
    23:00 +16°C° 0 mm 5 m/S 758 mmHg 61%

    27 Mai, Sonntag

    Zeit Temperatur Niederschläge Wind Luftdruck Luftfeuchtigkeit
    00:00 +15°C° 0 mm 5 m/S 758 mmHg 62%
    01:00 +15°C° 0 mm 4 m/S 758 mmHg 63%
    02:00 +14°C° 0 mm 4 m/S 758 mmHg 64%
    03:00 +14°C° 0 mm 4 m/S 758 mmHg 65%
    04:00 +13°C° 0 mm 4 m/S 758 mmHg 66%
    05:00 +13°C° 0 mm 5 m/S 758 mmHg 67%
    06:00 +14°C° 0 mm 5 m/S 758 mmHg 63%
    07:00 +15°C° 0 mm 5 m/S 758 mmHg 58%
    08:00 +16°C° 0 mm 5 m/S 759 mmHg 54%
    09:00 +19°C° 0 mm 5 m/S 758 mmHg 51%
    10:00 +20°C° 0 mm 5 m/S 758 mmHg 48%
    11:00 +22°C° 0 mm 5 m/S 758 mmHg 44%
    12:00 +23°C° 0 mm 5 m/S 758 mmHg 44%
    13:00 +23°C° 0 mm 5 m/S 758 mmHg 43%
    14:00 +25°C° 0 mm 5 m/S 757 mmHg 42%
    15:00 +25°C° 0 mm 5 m/S 757 mmHg 43%
    16:00 +25°C° 0 mm 5 m/S 757 mmHg 45%
    17:00 +23°C° 0 mm 5 m/S 757 mmHg 46%
    18:00 +22°C° 0 mm 4 m/S 757 mmHg 52%
    19:00 +20°C° 0 mm 4 m/S 757 mmHg 58%
    20:00 +18°C° 0 mm 3 m/S 757 mmHg 64%
    21:00 +18°C° 0 mm 3 m/S 757 mmHg 66%
    22:00 +17°C° 0 mm 3 m/S 757 mmHg 68%
    23:00 +16°C° 0 mm 3 m/S 757 mmHg 70%

    28 Mai, Montag

    Zeit Temperatur Niederschläge Wind Luftdruck Luftfeuchtigkeit
    00:00 +14°C° 0 mm 3 m/S 757 mmHg 71%
    01:00 +14°C° 0 mm 3 m/S 757 mmHg 73%
    02:00 +13°C° 0 mm 3 m/S 757 mmHg 74%
    03:00 +13°C° 0 mm 3 m/S 758 mmHg 75%
    04:00 +13°C° 0 mm 3 m/S 758 mmHg 76%
    05:00 +13°C° 0 mm 3 m/S 758 mmHg 77%
    06:00 +14°C° 0 mm 4 m/S 758 mmHg 70%
    07:00 +17°C° 0 mm 4 m/S 758 mmHg 63%
    08:00 +19°C° 0 mm 5 m/S 758 mmHg 57%
    09:00 +20°C° 0 mm 5 m/S 758 mmHg 52%
    10:00 +22°C° 0 mm 5 m/S 758 mmHg 48%
    11:00 +23°C° 0 mm 5 m/S 758 mmHg 44%
    12:00 +23°C° 0 mm 5 m/S 758 mmHg 43%
    13:00 +25°C° 0 mm 5 m/S 758 mmHg 42%
    14:00 +26°C° 0 mm 5 m/S 758 mmHg 41%
    15:00 +25°C° 0 mm 5 m/S 758 mmHg 42%
    16:00 +24°C° 0 mm 6 m/S 758 mmHg 44%
    17:00 +24°C° 0 mm 6 m/S 758 mmHg 45%
    18:00 +22°C° 0 mm 5 m/S 758 mmHg 51%
    19:00 +20°C° 0 mm 5 m/S 758 mmHg 57%
    20:00 +19°C° 0 mm 4 m/S 758 mmHg 63%
    21:00 +18°C° 0 mm 4 m/S 758 mmHg 66%
    22:00 +17°C° 0 mm 4 m/S 758 mmHg 68%
    23:00 +17°C° 0 mm 4 m/S 759 mmHg 70%

    29 Mai, Dienstag

    Zeit Temperatur Niederschläge Wind Luftdruck Luftfeuchtigkeit
    00:00 +15°C° 0 mm 4 m/S 759 mmHg 72%
    01:00 +15°C° 0 mm 4 m/S 759 mmHg 73%
    02:00 +14°C° 0 mm 4 m/S 759 mmHg 75%
    03:00 +14°C° 0 mm 4 m/S 759 mmHg 76%
    04:00 +14°C° 0 mm 5 m/S 759 mmHg 77%
    05:00 +14°C° 0 mm 5 m/S 759 mmHg 78%
    06:00 +16°C° 0 mm 5 m/S 759 mmHg 71%
    07:00 +19°C° 0 mm 6 m/S 760 mmHg 64%
    08:00 +21°C° 0 mm 7 m/S 760 mmHg 57%
    09:00 +22°C° 0 mm 7 m/S 760 mmHg 53%
    10:00 +24°C° 0 mm 7 m/S 760 mmHg 49%
    11:00 +26°C° 0 mm 7 m/S 760 mmHg 45%
    12:00 +27°C° 0 mm 7 m/S 759 mmHg 45%
    13:00 +27°C° 0 mm 7 m/S 759 mmHg 45%
    14:00 +28°C° 0 mm 8 m/S 759 mmHg 44%
    15:00 +27°C° 0 mm 7 m/S 758 mmHg 44%
    16:00 +27°C° 0 mm 7 m/S 758 mmHg 45%
    17:00 +26°C° 0 mm 7 m/S 758 mmHg 45%
    18:00 +24°C° 0 mm 6 m/S 758 mmHg 50%
    19:00 +22°C° 0 mm 6 m/S 758 mmHg 55%
    20:00 +20°C° 0 mm 5 m/S 758 mmHg 60%
    21:00 +19°C° 0 mm 5 m/S 758 mmHg 60%
    22:00 +17°C° 0 mm 5 m/S 758 mmHg 61%
    23:00 +16°C° 0 mm 5 m/S 758 mmHg 61%
    Mehr zeigen